Temperature
18 18 18 17 16 17 18 18 17 16 16 16 17 18 19 19 20 21 21 22 22 23 23 23 22 22 22 21 20 20 19 19 18 18 17 17 16 16 16 16 16 16 15 15
18 18 18 16 14 15 16 16 16 16 15 17 18 18 18 18 19 19 20 21 21 22 22 22 21 21 21 21 20 20 19 18 18 18 17 17 16 16 16 16 15 16 16 15
16 17 18 13 10 11 13 14 14 14 15 17 17 18 18 17 17 18 18 18 19 19 20 20 20 20 20 19 19 19 19 18 18 17 17 16 16 16 16 15 15 15 15 15
15 16 13 10 10 10 11 12 13 13 15 16 16 17 17 17 17 17 17 17 17 18 18 19 19 19 19 18 18 18 18 17 17 16 16 15 15 15 15 15 15 15 15 15
14 14 12 10 10 10 10 11 11 12 13 14 15 17 17 16 16 16 16 16 17 17 17 17 18 18 18 17 17 17 16 16 15 15 15 15 14 14 14 15 15 15 15 15
14 13 11 10 11 10 11 11 11 10 12 13 14 14 15 16 16 16 16 16 16 16 16 16 16 16 16 15 15 14 14 14 14 14 14 13 13 13 14 14 14 14 14 14
14 13 11 11 11 11 11 10 9 10 11 12 13 14 15 16 16 16 16 16 16 15 15 16 15 15 15 14 13 13 13 13 13 13 13 13 13 13 13 13 13 13 14 14
13 12 11 12 12 11 10 10 10 10 11 12 12 13 14 15 16 17 16 16 15 15 15 15 15 14 14 13 13 13 12 12 12 12 12 12 12 12 12 12 13 13 13 13
13 13 13 13 12 11 11 10 10 10 11 11 12 13 14 15 16 17 16 16 15 15 15 15 14 14 13 13 13 13 12 12 12 12 12 12 11 11 11 11 12 12 12 12
14 14 13 13 12 12 11 11 11 11 11 12 12 13 14 15 16 17 17 16 16 15 15 15 14 14 13 13 13 13 13 12 12 12 11 11 11 11 11 11 11 11 12 12
13 14 13 13 12 11 11 11 11 11 11 12 12 13 14 15 16 16 17 16 16 16 16 15 15 14 14 13 13 13 13 13 12 12 11 11 11 11 11 11 11 11 11 12
13 13 12 12 12 12 12 11 11 11 12 12 13 14 14 15 16 16 17 17 16 16 16 16 15 14 14 13 13 13 13 12 12 12 11 11 11 11 11 11 11 11 11 11
13 12 12 12 12 12 12 12 12 12 12 13 13 14 14 15 16 16 17 17 16 16 16 15 15 14 14 13 13 12 12 12 12 12 11 11 11 11 11 11 11 11 11 11
13 12 12 12 12 12 12 12 12 12 12 13 13 13 14 15 16 16 16 17 17 16 16 16 15 15 14 13 13 12 12 12 12 12 11 11 11 11 11 10 10 10 10 10
13 13 12 12 12 12 12 12 12 12 12 12 12 13 14 14 15 16 16 17 17 16 16 16 15 15 14 14 13 13 12 12 12 11 11 11 11 11 11 10 10 10 10 10
13 13 12 12 12 12 12 12 12 12 12 12 12 13 13 14 15 16 17 17 16 16 16 16 16 15 15 14 13 13 12 12 12 12 12 11 11 11 11 10 10 10 9 9
12 12 12 12 12 11 11 11 11 11 11 11 12 12 13 15 16 16 17 17 17 16 16 16 16 15 15 14 14 13 12 12 12 12 11 11 11 11 11 10 10 10 10 10
12 12 11 11 11 11 11 11 11 11 11 11 11 12 13 14 15 16 17 17 17 17 16 16 16 16 15 15 14 13 12 12 12 11 11 11 11 11 11 10 10 10 10 10
12 12 11 11 11 11 11 11 11 11 11 11 11 12 13 14 15 16 17 17 17 17 17 16 16 16 15 15 14 13 12 12 12 11 11 11 11 11 11 10 10 10 10 10
12 12 12 11 11 11 11 11 11 11 11 11 12 12 13 14 15 16 17 17 17 17 17 16 16 16 15 15 14 13 12 12 11 11 11 11 11 11 11 10 10 10 10 10
12 12 12 11 11 11 11 11 11 11 11 11 11 12 12 13 15 16 17 17 17 17 17 17 16 16 15 15 14 13 12 12 11 11 11 11 11 11 11 11 10 10 10 10
12 12 12 12 11 11 11 11 11 11 11 11 11 12 12 13 14 16 17 17 17 17 17 17 16 16 16 15 14 13 12 11 11 11 11 11 11 11 11 10 10 10 10 10
12 12 12 12 11 11 11 11 11 11 11 11 11 12 12 12 13 15 16 16 16 17 16 16 16 16 15 15 14 13 12 11 11 11 11 11 11 11 10 10 10 10 10 10
12 12 12 11 11 11 11 11 11 11 11 11 11 12 12 12 13 14 15 16 16 16 16 16 16 16 15 14 13 13 12 11 11 10 10 10 10 10 10 10 10 10 10 9
12 12 12 11 11 11 11 10 10 10 11 11 11 11 11 12 12 14 15 15 16 16 16 16 16 15 15 14 13 12 12 11 11 11 10 10 10 10 10 10 10 9 9 9
12 11 11 11 11 11 10 10 10 10 10 10 11 11 11 12 12 13 14 14 15 15 16 16 16 15 14 13 13 12 11 11 11 10 10 10 10 10 10 10 9 9 9 9
11 11 11 11 11 11 11 11 10 10 10 10 10 11 11 11 12 13 13 14 14 15 15 16 15 15 14 13 13 12 11 11 11 10 10 10 10 10 10 9 9 9 9 9
Wind_Speed
15 14 10 10 11 12 9 5 2 5 9 13 13 13 13 14 14 13 10 8 6 3 1 3 3 3 4 7 9 9 8 7 7 6 6 6 5 5 6 5 5 6 7 8
17 15 11 7 17 14 10 11 11 11 10 13 13 12 13 16 16 15 14 12 10 7 5 3 3 3 4 4 5 6 6 6 5 3 4 5 4 4 5 5 4 4 5 6
12 15 8 8 16 15 13 15 12 12 12 16 17 14 16 17 17 15 16 15 15 13 11 9 8 7 7 6 6 5 4 5 4 1 0 2 3 4 4 4 5 5 5 5
9 11 4 6 8 13 10 14 18 17 19 21 20 8 15 18 17 16 14 14 13 12 12 12 11 10 9 10 9 9 8 7 6 4 3 3 3 4 5 5 5 6 6 5
6 7 4 6 9 11 8 6 16 19 21 23 24 12 15 21 16 13 12 11 10 10 10 11 11 10 11 11 11 10 9 7 7 6 5 4 4 4 4 5 5 5 5 5
6 6 4 5 13 15 7 1 15 19 20 22 22 15 14 19 14 11 9 8 8 9 10 9 10 10 11 10 9 9 8 7 6 5 5 5 5 5 4 4 4 4 4 5
9 5 3 5 12 10 5 7 15 16 18 18 16 13 16 18 12 7 6 7 7 8 7 8 8 9 10 8 7 6 6 6 6 5 5 4 5 5 4 4 4 4 4 3
8 6 4 8 8 7 5 9 12 15 16 17 18 18 17 16 11 6 5 5 6 5 6 6 7 7 7 6 4 4 4 4 5 5 6 6 5 5 5 4 4 4 3 4
5 4 5 6 5 4 6 10 12 14 16 17 18 17 17 15 12 6 3 4 3 2 3 4 6 6 5 4 4 3 3 3 4 5 5 6 6 6 5 4 3 3 2 3
5 5 8 7 7 8 10 11 13 14 16 17 17 17 17 15 12 7 2 3 0 2 1 3 3 3 4 4 5 2 2 3 5 6 6 6 6 6 5 6 5 4 3 2
5 6 8 7 11 12 12 13 13 14 15 15 16 16 15 14 11 7 3 3 1 2 2 2 3 4 5 4 6 4 4 4 5 5 4 5 6 6 6 7 6 5 5 4
4 8 8 11 12 13 13 14 14 15 15 15 15 14 14 12 10 7 4 3 3 3 3 1 4 4 5 2 5 5 5 5 3 3 2 2 4 5 10 9 11 13 12 8
5 7 8 10 11 12 12 13 14 14 15 15 14 13 13 11 10 8 5 2 4 5 3 1 2 3 4 2 3 3 4 3 3 3 1 1 1 2 3 4 9 12 13 12
4 6 9 10 11 12 13 13 13 14 13 13 13 13 12 12 11 9 7 4 4 4 5 3 2 2 3 2 1 2 3 3 1 1 2 2 2 2 2 3 3 4 6 9
4 7 8 10 11 12 13 13 14 13 14 14 13 13 13 13 12 11 9 5 4 5 5 4 3 3 4 2 1 2 3 3 3 2 2 2 2 3 3 4 4 3 2 3
6 7 9 10 11 12 13 14 14 14 14 14 13 14 14 14 13 12 9 5 4 6 6 5 4 4 6 3 1 2 4 3 3 3 1 2 3 3 4 4 4 3 4 3
5 7 9 10 11 12 13 13 13 13 14 14 14 15 15 14 13 11 8 5 5 5 5 6 5 5 6 4 3 2 3 4 1 3 2 3 3 3 4 4 4 4 4 3
4 6 8 10 10 12 13 13 13 13 13 13 14 14 14 13 12 12 10 7 5 6 6 5 5 7 7 5 3 1 1 4 3 1 3 4 3 3 4 4 4 5 3 2
4 6 7 9 9 10 11 12 12 12 13 12 13 13 13 12 12 12 11 8 5 5 6 6 6 7 7 6 4 1 2 2 3 3 4 3 1 3 4 4 4 4 3 2
4 6 7 8 9 9 10 11 12 11 11 12 13 13 13 13 12 12 11 8 5 4 4 6 8 6 7 8 5 2 2 2 3 3 3 2 2 3 4 3 3 3 3 3
5 6 7 8 9 9 10 10 10 11 11 12 12 13 13 12 12 11 9 8 6 3 2 6 6 5 6 8 6 3 2 3 4 3 2 2 2 3 4 3 3 3 4 4
5 5 6 7 8 9 9 9 10 10 11 12 12 12 12 11 11 11 10 7 4 2 4 4 4 7 10 11 5 3 3 3 4 3 2 2 2 3 3 3 3 4 4 4
5 5 7 8 9 9 10 9 9 9 10 11 12 12 11 10 8 8 9 7 2 3 3 4 7 15 15 8 5 4 4 4 4 3 3 2 3 3 4 4 4 5 5 5
6 6 7 8 8 9 9 8 8 8 9 10 10 10 10 9 8 7 8 8 3 4 3 5 15 16 12 5 5 5 4 4 4 3 3 2 3 4 4 5 5 5 5 6
7 7 8 7 7 6 7 8 8 7 8 8 10 10 9 8 8 8 9 7 2 4 2 8 14 14 8 5 6 5 4 4 5 4 3 3 3 4 5 5 5 5 5 5
6 5 5 6 6 5 6 6 5 5 6 7 7 8 9 9 9 8 7 6 3 4 3 6 8 8 6 5 6 6 6 6 5 4 4 4 5 5 5 6 7 6 6 6
7 6 5 5 6 6 5 4 4 5 5 6 8 9 9 9 8 9 9 5 2 4 4 5 6 6 5 5 5 5 6 6 5 5 4 4 5 5 6 7 6 6 6 6
Wind_Direction
309 303 290 282 307 311 322 346 23 30 38 13 356 339 340 350 350 349 344 333 315 292 233 167 189 205 181 172 163 165 164 170 177 193 179 185 211 209 204 220 211 192 184 180
312 310 300 16 16 15 26 29 50 54 33 352 347 354 14 9 7 8 7 8 7 7 31 63 100 93 87 106 128 146 161 164 157 176 173 181 212 237 217 206 223 227 200 184
316 317 309 50 18 12 38 40 42 40 12 355 356 16 29 18 15 17 17 18 23 28 35 45 61 75 76 70 65 67 77 90 96 86 8 192 226 246 247 220 218 234 233 203
323 338 44 57 18 1 8 37 25 13 5 359 352 16 45 23 17 18 19 19 21 26 35 44 50 56 62 59 53 46 44 44 42 25 9 339 290 268 255 240 225 228 241 226
345 348 61 30 0 345 328 8 17 1 356 356 352 6 24 10 8 16 19 17 17 26 37 41 44 47 57 59 53 45 35 31 30 18 2 340 313 298 283 271 251 228 228 228
357 359 20 344 330 322 287 326 5 352 349 351 357 5 350 345 353 12 17 14 19 27 33 41 43 49 56 56 51 41 30 29 23 12 352 334 325 312 303 294 285 261 239 220
2 17 69 340 337 350 42 332 328 334 338 342 345 334 324 331 342 5 25 20 28 36 29 35 47 58 57 51 49 41 27 22 15 8 353 3 351 336 328 320 311 297 279 252
357 12 23 6 1 14 323 311 320 326 329 330 326 325 328 331 333 349 43 41 35 43 38 33 39 61 70 46 34 53 40 26 19 20 15 13 4 354 352 350 333 313 306 293
349 359 6 353 357 342 316 316 320 322 322 323 322 325 328 328 330 340 58 74 50 66 79 64 44 42 58 39 356 22 42 39 42 44 49 31 18 11 7 4 354 335 320 297
341 358 357 356 357 341 330 322 319 317 317 319 318 320 323 325 326 334 27 104 154 273 134 105 84 68 62 9 328 341 64 65 70 52 49 50 33 21 21 16 7 353 344 323
327 355 347 346 345 335 328 324 321 318 316 314 314 316 318 320 325 327 328 127 146 300 314 113 95 82 73 14 329 344 47 68 84 82 71 71 65 41 31 44 34 18 5 16
330 344 333 326 331 328 327 326 323 320 317 316 313 312 316 319 320 319 316 153 168 243 280 66 85 87 95 38 335 15 45 37 48 88 92 101 120 100 58 57 52 49 43 48
325 335 321 317 325 330 325 323 322 318 314 315 316 318 319 317 317 317 312 246 186 202 231 239 98 88 106 105 6 21 63 41 31 42 68 92 135 134 128 81 66 56 48 50
326 319 322 330 329 328 329 329 326 323 324 325 325 324 322 320 322 321 312 285 202 196 211 210 166 127 109 110 70 33 77 100 17 13 5 27 48 64 106 121 92 66 54 50
322 326 322 326 330 334 336 336 336 335 334 332 330 327 326 326 322 316 306 286 213 201 220 218 198 154 127 121 13 39 46 54 31 19 25 47 56 60 82 98 104 100 101 73
323 323 330 333 334 335 337 339 338 336 335 332 330 329 325 319 311 304 295 272 232 215 219 220 211 165 147 159 158 109 101 75 3 335 12 74 83 84 85 91 94 83 69 51
307 322 329 329 330 332 332 332 333 333 332 330 328 325 321 318 315 313 308 279 237 228 226 218 198 156 147 165 193 213 148 138 219 300 31 64 77 92 97 95 90 84 75 50
307 314 314 317 322 324 324 327 329 330 329 327 325 323 323 321 317 314 310 293 244 223 231 229 180 150 151 168 187 255 163 155 178 107 74 63 59 81 93 99 100 101 111 100
290 301 307 312 316 316 320 322 323 324 326 328 327 324 320 316 313 309 307 301 271 242 225 210 176 157 155 156 159 206 243 150 125 104 104 112 110 105 106 108 111 111 103 88
278 296 305 310 314 318 316 315 319 322 326 328 328 326 324 321 318 316 311 302 274 248 227 181 164 170 157 147 160 209 214 139 118 115 114 124 112 113 119 120 117 116 112 95
266 288 301 308 313 313 312 316 319 321 327 329 328 325 322 319 318 315 309 302 288 246 196 155 159 159 146 144 168 205 188 141 123 126 132 130 121 121 125 124 117 106 100 95
252 280 296 304 309 312 318 319 319 324 328 326 325 324 324 323 323 319 309 293 292 157 145 160 169 147 141 143 170 179 165 141 130 134 139 139 129 127 129 125 111 101 94 90
261 285 299 306 308 312 315 318 326 328 323 321 320 323 327 321 315 310 308 311 322 173 192 185 156 141 143 153 164 160 166 155 144 144 147 146 133 126 126 121 108 101 95 90
264 281 290 295 301 307 311 320 322 317 315 316 316 326 331 325 320 316 313 318 313 189 235 163 149 150 154 167 154 159 167 152 138 138 137 127 116 115 112 109 105 100 96 92
262 273 281 293 298 299 307 310 309 312 315 318 320 331 334 323 314 311 307 306 254 183 176 160 161 158 169 174 156 162 157 142 140 139 137 127 114 112 114 114 113 111 105 97
267 274 277 279 282 283 284 285 294 306 314 316 319 330 327 320 314 311 303 292 213 190 162 154 166 172 196 171 154 155 142 134 135 142 143 135 129 119 116 115 114 112 110 105
262 264 257 255 257 254 260 274 285 297 308 312 321 321 317 318 321 324 320 312 168 182 169 165 172 187 194 148 147 153 148 151 158 157 148 137 129 127 129 128 122 116 114 116
Height
1494 1490 1491 1492 1492 1486 1483 1482 1489 1492 1493 1492 1487 1484 1479 1474 1469 1464 1460 1458 1457 1457 1457 1458 1460 1462 1463 1466 1468 1470 1473 1475 1476 1478 1479 1479 1480 1481 1481 1482 1483 1484 1485 1485
1494 1487 1486 1494 1499 1492 1489 1490 1491 1493 1498 1493 1489 1484 1481 1477 1472 1467 1463 1460 1458 1457 1457 1457 1459 1460 1462 1464 1467 1470 1472 1473 1475 1476 1477 1477 1478 1479 1479 1480 1480 1482 1482 1483
1499 1489 1485 1507 1519 1513 1506 1504 1502 1505 1504 1496 1490 1487 1485 1481 1477 1472 1469 1465 1462 1460 1459 1459 1460 1461 1463 1465 1467 1469 1471 1472 1473 1474 1475 1475 1475 1475 1476 1476 1477 1478 1479 1480
1503 1498 1509 1529 1525 1522 1516 1511 1511 1509 1505 1500 1494 1489 1487 1484 1481 1477 1474 1470 1467 1465 1464 1463 1463 1464 1465 1466 1467 1469 1470 1470 1471 1471 1471 1471 1472 1472 1472 1473 1474 1474 1476 1477
1510 1511 1518 1526 1525 1525 1523 1516 1517 1514 1508 1502 1495 1486 1485 1487 1485 1482 1479 1476 1473 1471 1469 1468 1467 1468 1467 1468 1468 1468 1469 1469 1468 1468 1468 1468 1468 1468 1469 1470 1470 1471 1472 1474
1511 1516 1527 1532 1525 1521 1519 1518 1519 1517 1513 1508 1502 1497 1494 1491 1488 1485 1483 1480 1478 1476 1474 1472 1471 1471 1470 1470 1469 1469 1469 1468 1467 1466 1465 1465 1464 1464 1465 1466 1467 1468 1469 1470
1516 1519 1529 1529 1525 1520 1524 1528 1522 1520 1516 1512 1509 1508 1501 1494 1490 1487 1485 1483 1481 1479 1478 1477 1475 1474 1473 1472 1471 1470 1469 1468 1467 1465 1464 1463 1462 1461 1461 1462 1463 1464 1465 1467
1523 1526 1534 1527 1525 1527 1530 1525 1522 1519 1516 1513 1509 1505 1500 1495 1491 1488 1486 1485 1483 1482 1480 1479 1478 1476 1475 1474 1473 1472 1470 1469 1467 1465 1463 1462 1460 1459 1459 1459 1460 1461 1462 1463
1528 1531 1528 1527 1527 1527 1525 1523 1520 1518 1514 1511 1507 1503 1499 1495 1491 1488 1486 1485 1484 1483 1483 1481 1480 1479 1477 1476 1474 1473 1471 1470 1468 1466 1464 1462 1460 1459 1458 1458 1459 1459 1460 1461
1526 1526 1527 1526 1526 1525 1523 1521 1518 1515 1512 1509 1506 1502 1498 1494 1491 1488 1486 1485 1485 1484 1484 1483 1482 1480 1478 1476 1475 1474 1473 1471 1469 1467 1465 1463 1462 1460 1460 1459 1459 1459 1459 1460
1527 1527 1526 1526 1525 1523 1521 1518 1515 1513 1510 1507 1504 1500 1497 1494 1490 1488 1486 1485 1484 1484 1484 1484 1482 1480 1478 1476 1475 1475 1473 1472 1470 1469 1467 1466 1464 1463 1462 1461 1461 1461 1460 1460
1529 1528 1528 1526 1524 1521 1519 1516 1513 1510 1506 1504 1502 1499 1495 1492 1490 1487 1485 1484 1484 1484 1484 1484 1482 1481 1479 1477 1476 1475 1474 1473 1472 1471 1469 1468 1467 1466 1465 1464 1463 1463 1462 1461
1528 1527 1526 1525 1522 1520 1517 1514 1511 1508 1505 1501 1499 1497 1494 1491 1488 1486 1484 1484 1483 1483 1483 1483 1482 1481 1479 1477 1476 1475 1474 1473 1473 1472 1471 1470 1469 1468 1467 1467 1465 1464 1463 1463
1526 1525 1524 1522 1520 1518 1515 1512 1509 1506 1503 1500 1497 1494 1492 1489 1487 1485 1483 1482 1482 1482 1482 1482 1482 1481 1479 1478 1476 1476 1475 1474 1473 1472 1472 1471 1470 1469 1468 1467 1466 1465 1464 1464
1523 1523 1522 1520 1518 1516 1513 1510 1507 1504 1501 1498 1495 1492 1490 1487 1484 1482 1481 1480 1480 1480 1480 1481 1481 1480 1478 1477 1476 1475 1475 1474 1473 1473 1472 1471 1471 1470 1469 1468 1468 1467 1466 1466
1521 1521 1520 1518 1516 1514 1511 1508 1505 1502 1499 1496 1493 1490 1487 1485 1482 1480 1479 1478 1478 1478 1478 1479 1479 1479 1477 1476 1475 1475 1474 1473 1473 1473 1473 1472 1472 1471 1470 1470 1469 1469 1468 1468
1519 1518 1517 1516 1514 1512 1510 1507 1504 1501 1498 1494 1491 1488 1485 1483 1481 1479 1477 1476 1475 1475 1476 1477 1477 1477 1476 1475 1475 1474 1474 1473 1473 1473 1473 1473 1473 1472 1472 1471 1471 1471 1470 1470
1516 1516 1515 1514 1512 1510 1507 1505 1502 1499 1496 1493 1489 1486 1483 1481 1479 1477 1476 1474 1473 1473 1474 1475 1475 1475 1474 1474 1473 1474 1474 1474 1473 1474 1473 1473 1473 1473 1473 1473 1473 1473 1472 1472
1513 1513 1512 1511 1510 1508 1505 1503 1500 1497 1494 1490 1487 1484 1481 1479 1477 1475 1474 1473 1472 1471 1471 1472 1473 1473 1472 1472 1472 1472 1473 1473 1473 1473 1473 1474 1474 1474 1474 1474 1474 1474 1474 1474
1510 1510 1510 1508 1507 1505 1503 1500 1497 1495 1492 1488 1485 1482 1479 1476 1474 1473 1471 1470 1469 1469 1469 1469 1470 1471 1471 1470 1471 1471 1472 1472 1473 1473 1473 1474 1474 1475 1475 1475 1475 1476 1476 1476
1507 1507 1506 1506 1504 1502 1500 1498 1495 1492 1489 1486 1483 1480 1477 1474 1472 1470 1469 1468 1467 1467 1466 1467 1468 1469 1469 1469 1469 1470 1471 1471 1472 1472 1473 1474 1475 1475 1475 1476 1476 1477 1477 1477
1503 1503 1503 1502 1501 1499 1498 1495 1493 1490 1487 1484 1481 1478 1475 1472 1469 1467 1467 1466 1465 1464 1464 1465 1466 1467 1467 1468 1468 1469 1469 1470 1471 1472 1473 1474 1474 1475 1476 1476 1477 1477 1478 1478
1499 1500 1499 1499 1498 1496 1494 1492 1490 1487 1484 1481 1478 1476 1473 1470 1467 1465 1464 1464 1463 1462 1462 1463 1464 1465 1466 1466 1467 1468 1468 1469 1470 1471 1472 1473 1474 1475 1476 1476 1477 1477 1477 1477
1495 1496 1495 1495 1494 1492 1491 1489 1487 1484 1482 1479 1477 1474 1471 1467 1465 1463 1462 1461 1461 1460 1460 1461 1462 1464 1465 1465 1466 1467 1467 1468 1469 1470 1472 1473 1474 1475 1475 1476 1476 1477 1477 1477
1491 1491 1491 1491 1490 1488 1487 1485 1483 1481 1479 1476 1474 1472 1468 1465 1462 1460 1459 1458 1458 1457 1458 1459 1461 1462 1463 1464 1465 1466 1466 1467 1468 1469 1471 1472 1473 1474 1474 1475 1476 1476 1476 1476
1486 1486 1486 1486 1485 1484 1483 1482 1480 1478 1476 1474 1471 1468 1465 1462 1460 1458 1457 1456 1455 1455 1455 1457 1459 1460 1462 1463 1464 1465 1465 1466 1467 1468 1469 1470 1471 1472 1473 1474 1474 1475 1475 1475
1481 1481 1481 1480 1480 1479 1479 1478 1477 1475 1473 1471 1468 1465 1463 1460 1458 1456 1454 1454 1453 1453 1454 1455 1457 1459 1460 1461 1462 1463 1464 1464 1465 1466 1468 1469 1470 1471 1472 1472 1473 1473 1474 1474